This is the latest recevied weather packets stored in our database for station/object KC8ZBC. If no packets are shown the sender has not sent any weather packets the latest 10 day(s).
| Time | Temp. | Humidity | Pressure | Rain* | Wind** | Luminosity | Snow |
|---|---|---|---|---|---|---|---|
| 1777674097 | 6.67° C | 60% | 989.6 hPa | 0 mm | - | 42 W/m² | - |
| 1777673792 | 6.67° C | 62% | 989.8 hPa | 0 mm | - | 44 W/m² | - |
| 1777673490 | 6.67° C | 61% | 989.8 hPa | 0 mm | - | 60 W/m² | - |
| 1777673188 | 6.67° C | 61% | 989.8 hPa | 0 mm | - | 61 W/m² | - |
| 1777672884 | 6.67° C | 62% | 989.7 hPa | 0 mm | - | 57 W/m² | - |
| 1777672581 | 6.67° C | 61% | 989.8 hPa | 0 mm | - | 53 W/m² | - |
| 1777672276 | 7.22° C | 59% | 989.6 hPa | 0 mm | - | 79 W/m² | - |
| 1777671971 | 7.22° C | 60% | 989.5 hPa | 0 mm | - | 87 W/m² | - |
| 1777671667 | 7.78° C | 59% | 989.7 hPa | 0 mm | - | 95 W/m² | - |
| 1777671364 | 7.22° C | 60% | 989.3 hPa | 0 mm | - | 100 W/m² | - |
| 1777671060 | 7.22° C | 59% | 989.3 hPa | 0 mm | - | 117 W/m² | - |
| 1777670757 | 7.22° C | 59% | 989.4 hPa | 0 mm | - | 119 W/m² | - |
| 1777670454 | 7.22° C | 60% | 989.4 hPa | 0 mm | - | 132 W/m² | - |
| 1777670150 | 7.22° C | 59% | 989.5 hPa | 0 mm | - | 137 W/m² | - |
| 1777669849 | 7.22° C | 60% | 989.1 hPa | 0 mm | - | 111 W/m² | - |
| 1777669544 | 6.67° C | 59% | 989.2 hPa | 0 mm | - | 86 W/m² | - |
| 1777669242 | 6.67° C | 59% | 989.2 hPa | 0 mm | - | 62 W/m² | - |
| 1777668938 | 6.67° C | 60% | 989.3 hPa | 0 mm | - | 26 W/m² | - |
| 1777668636 | 7.22° C | 59% | 989.2 hPa | 0 mm | - | 23 W/m² | - |
| 1777668332 | 7.22° C | 59% | 989.2 hPa | 0 mm | - | 26 W/m² | - |
| 1777668028 | 7.22° C | 58% | 989.2 hPa | 0 mm | - | 26 W/m² | - |
| 1777667725 | 7.22° C | 58% | 989.3 hPa | 0 mm | - | 44 W/m² | - |
| 1777667423 | 7.78° C | 57% | 989 hPa | 0 mm | - | 86 W/m² | - |
| 1777667119 | 7.78° C | 57% | 989 hPa | 0 mm | - | 137 W/m² | - |
| 1777666816 | 7.78° C | 56% | 989.2 hPa | 0 mm | - | 207 W/m² | - |
* Rain latest hour (hover to see other rain measurements)
** Current wind speed in m/s (hover to see current wind gust speed)